QPF
0.07 0.08 0.10 0.09 0.12 0.10 0.08 0.09 0.11 0.11 0.10 0.10 0.10 0.12 0.14 0.17 0.17 0.20 0.24 0.25 0.29 0.33 0.32 0.36 0.40 0.38 0.33 0.28 0.26 0.24 0.20 0.21 0.23 0.18 0.13 0.12 0.09 0.08 0.08 0.08 0.07 0.07 0.06
0.08 0.08 0.11 0.11 0.11 0.14 0.14 0.08 0.10 0.11 0.10 0.10 0.11 0.14 0.16 0.17 0.18 0.20 0.22 0.23 0.25 0.31 0.33 0.39 0.42 0.33 0.30 0.25 0.25 0.23 0.17 0.17 0.17 0.16 0.14 0.12 0.08 0.09 0.10 0.09 0.08 0.07 0.07
0.10 0.11 0.12 0.11 0.09 0.10 0.10 0.08 0.08 0.08 0.10 0.10 0.11 0.13 0.17 0.17 0.18 0.20 0.22 0.23 0.31 0.39 0.40 0.38 0.38 0.38 0.35 0.28 0.24 0.19 0.14 0.13 0.13 0.14 0.13 0.09 0.07 0.09 0.10 0.09 0.09 0.08 0.07
0.08 0.12 0.12 0.11 0.10 0.09 0.09 0.09 0.08 0.07 0.09 0.10 0.11 0.13 0.17 0.17 0.18 0.21 0.27 0.26 0.38 0.40 0.41 0.32 0.36 0.44 0.35 0.27 0.22 0.16 0.14 0.14 0.14 0.12 0.09 0.06 0.06 0.08 0.09 0.10 0.09 0.07 0.08
0.05 0.08 0.11 0.12 0.12 0.09 0.10 0.15 0.14 0.10 0.08 0.11 0.12 0.14 0.20 0.21 0.20 0.22 0.23 0.22 0.28 0.32 0.33 0.31 0.36 0.42 0.31 0.24 0.20 0.17 0.15 0.16 0.16 0.11 0.09 0.08 0.07 0.08 0.09 0.08 0.06 0.07 0.07
0.03 0.05 0.08 0.13 0.09 0.06 0.09 0.17 0.19 0.16 0.11 0.10 0.12 0.17 0.21 0.21 0.21 0.20 0.17 0.18 0.20 0.25 0.29 0.31 0.34 0.34 0.26 0.20 0.19 0.19 0.18 0.19 0.13 0.10 0.10 0.08 0.07 0.06 0.06 0.06 0.06 0.07 0.08
0.02 0.04 0.09 0.10 0.06 0.06 0.08 0.14 0.18 0.17 0.15 0.12 0.11 0.14 0.20 0.22 0.20 0.17 0.15 0.17 0.18 0.20 0.24 0.28 0.32 0.32 0.26 0.22 0.22 0.24 0.24 0.19 0.11 0.08 0.07 0.06 0.05 0.05 0.05 0.06 0.08 0.09 0.09
0.03 0.04 0.06 0.08 0.06 0.06 0.07 0.12 0.17 0.15 0.12 0.11 0.10 0.14 0.19 0.21 0.22 0.19 0.18 0.17 0.18 0.17 0.18 0.19 0.22 0.23 0.22 0.24 0.25 0.23 0.20 0.13 0.06 0.04 0.04 0.04 0.05 0.04 0.05 0.06 0.06 0.06 0.07
0.02 0.03 0.05 0.08 0.07 0.07 0.07 0.07 0.11 0.13 0.13 0.12 0.13 0.16 0.18 0.20 0.23 0.22 0.18 0.16 0.14 0.12 0.11 0.10 0.10 0.10 0.11 0.14 0.14 0.12 0.10 0.07 0.04 0.03 0.03 0.03 0.03 0.04 0.05 0.04 0.05 0.08 0.10
0.02 0.02 0.04 0.07 0.05 0.05 0.07 0.08 0.07 0.09 0.13 0.14 0.15 0.17 0.18 0.24 0.26 0.18 0.13 0.11 0.09 0.08 0.07 0.07 0.07 0.09 0.09 0.08 0.07 0.07 0.07 0.06 0.04 0.02 0.02 0.02 0.02 0.03 0.03 0.03 0.05 0.08 0.15
0.03 0.03 0.04 0.04 0.03 0.03 0.04 0.05 0.08 0.08 0.09 0.12 0.14 0.13 0.16 0.19 0.16 0.14 0.13 0.10 0.09 0.08 0.08 0.08 0.07 0.07 0.07 0.06 0.06 0.06 0.06 0.05 0.04 0.04 0.02 0.02 0.03 0.03 0.02 0.03 0.04 0.04 0.06
0.03 0.04 0.04 0.03 0.03 0.03 0.03 0.05 0.07 0.06 0.06 0.08 0.11 0.10 0.10 0.11 0.10 0.08 0.11 0.12 0.11 0.09 0.08 0.06 0.06 0.06 0.05 0.04 0.04 0.05 0.05 0.04 0.04 0.04 0.03 0.02 0.03 0.05 0.04 0.03 0.02 0.02 0.02
0.03 0.02 0.02 0.01 0.02 0.04 0.06 0.05 0.05 0.06 0.06 0.06 0.06 0.08 0.09 0.09 0.08 0.07 0.08 0.09 0.08 0.06 0.07 0.06 0.05 0.03 0.03 0.03 0.04 0.05 0.05 0.04 0.06 0.05 0.05 0.06 0.06 0.08 0.07 0.05 0.04 0.03 0.02
0.02 0.02 0.02 0.02 0.03 0.05 0.06 0.04 0.03 0.03 0.04 0.03 0.03 0.04 0.06 0.07 0.08 0.09 0.08 0.06 0.05 0.06 0.08 0.07 0.05 0.03 0.04 0.04 0.05 0.04 0.04 0.03 0.05 0.06 0.06 0.05 0.08 0.10 0.09 0.08 0.07 0.05 0.03
0.02 0.03 0.03 0.03 0.04 0.06 0.05 0.05 0.04 0.05 0.05 0.04 0.05 0.05 0.05 0.05 0.06 0.07 0.07 0.06 0.05 0.06 0.06 0.05 0.06 0.07 0.07 0.06 0.05 0.05 0.05 0.04 0.04 0.04 0.05 0.05 0.05 0.08 0.11 0.12 0.11 0.08 0.06
0.01 0.01 0.03 0.03 0.04 0.04 0.04 0.04 0.04 0.04 0.06 0.06 0.06 0.06 0.05 0.04 0.05 0.06 0.07 0.07 0.05 0.05 0.05 0.05 0.05 0.06 0.07 0.06 0.05 0.06 0.08 0.07 0.06 0.05 0.04 0.05 0.06 0.08 0.10 0.12 0.13 0.12 0.10
0.01 0.01 0.02 0.02 0.03 0.03 0.03 0.03 0.02 0.02 0.03 0.03 0.04 0.04 0.04 0.04 0.05 0.06 0.05 0.06 0.06 0.04 0.04 0.06 0.07 0.07 0.07 0.06 0.05 0.05 0.05 0.06 0.05 0.03 0.03 0.04 0.05 0.08 0.12 0.13 0.11 0.11 0.12
0.01 0.01 0.01 0.01 0.02 0.03 0.03 0.03 0.02 0.03 0.02 0.02 0.02 0.02 0.02 0.03 0.04 0.05 0.04 0.04 0.05 0.05 0.05 0.07 0.09 0.08 0.08 0.06 0.06 0.05 0.04 0.04 0.04 0.03 0.04 0.04 0.04 0.05 0.07 0.10 0.10 0.12 0.16
0.02 0.01 0.00 0.00 0.01 0.02 0.02 0.02 0.02 0.03 0.03 0.02 0.02 0.03 0.03 0.03 0.05 0.05 0.07 0.08 0.08 0.07 0.07 0.07 0.07 0.07 0.08 0.08 0.06 0.04 0.03 0.03 0.04 0.04 0.04 0.05 0.04 0.04 0.05 0.07 0.10 0.11 0.16
0.01 0.01 0.01 0.01 0.01 0.01 0.01 0.02 0.02 0.03 0.03 0.02 0.02 0.03 0.04 0.04 0.05 0.06 0.06 0.07 0.07 0.09 0.09 0.08 0.08 0.09 0.08 0.09 0.07 0.06 0.06 0.05 0.04 0.03 0.03 0.03 0.02 0.03 0.05 0.06 0.08 0.11 0.17
0.01 0.01 0.01 0.01 0.00 0.01 0.01 0.01 0.02 0.02 0.03 0.02 0.02 0.03 0.06 0.10 0.09 0.07 0.06 0.06 0.06 0.07 0.08 0.08 0.08 0.08 0.08 0.08 0.07 0.07 0.06 0.04 0.03 0.03 0.02 0.02 0.02 0.03 0.04 0.06 0.07 0.10 0.15
0.01 0.01 0.01 0.01 0.01 0.01 0.01 0.01 0.02 0.02 0.03 0.03 0.02 0.04 0.08 0.11 0.10 0.08 0.06 0.06 0.06 0.06 0.07 0.09 0.10 0.09 0.09 0.09 0.09 0.09 0.08 0.06 0.04 0.03 0.03 0.02 0.02 0.03 0.03 0.04 0.05 0.06 0.08
0.00 0.00 0.00 0.00 0.01 0.02 0.02 0.02 0.03 0.04 0.05 0.05 0.05 0.05 0.07 0.07 0.06 0.05 0.04 0.04 0.05 0.05 0.07 0.11 0.10 0.06 0.07 0.07 0.08 0.09 0.09 0.08 0.06 0.05 0.04 0.02 0.02 0.02 0.02 0.03 0.04 0.04 0.05
0.00 0.00 0.00 0.00 0.01 0.02 0.02 0.04 0.06 0.06 0.06 0.06 0.05 0.05 0.07 0.06 0.04 0.03 0.04 0.04 0.05 0.05 0.07 0.07 0.06 0.05 0.05 0.05 0.06 0.06 0.06 0.07 0.07 0.06 0.04 0.03 0.02 0.01 0.02 0.02 0.03 0.04 0.05
0.00 0.00 0.00 0.00 0.01 0.02 0.04 0.05 0.05 0.04 0.04 0.03 0.03 0.03 0.03 0.03 0.02 0.02 0.03 0.03 0.04 0.04 0.06 0.07 0.07 0.06 0.04 0.04 0.04 0.05 0.05 0.06 0.05 0.05 0.05 0.04 0.02 0.01 0.01 0.01 0.02 0.04 0.05
0.00 0.00 0.00 0.01 0.01 0.03 0.04 0.04 0.03 0.02 0.02 0.02 0.02 0.02 0.02 0.01 0.02 0.02 0.02 0.03 0.03 0.04 0.05 0.07 0.07 0.06 0.05 0.04 0.04 0.05 0.04 0.04 0.04 0.04 0.04 0.04 0.04 0.03 0.02 0.03 0.03 0.03 0.03
MSLP
1007.03 1005.94 1004.88 1003.91 1003.05 1002.30 1001.64 1001.03 1000.49 1000.02 999.67 999.52 999.60 999.96 1000.59 1001.44 1002.44 1003.48 1004.48 1005.37 1006.13 1006.76 1007.30 1007.82 1008.35 1008.92 1009.51 1010.10 1010.66 1011.15 1011.55 1011.87 1012.15 1012.42 1012.71 1013.04 1013.39 1013.76 1014.11 1014.41 1014.64 1014.81 1014.93
1007.64 1006.64 1005.64 1004.71 1003.88 1003.15 1002.52 1001.97 1001.50 1001.12 1000.87 1000.79 1000.93 1001.28 1001.85 1002.60 1003.44 1004.32 1005.15 1005.89 1006.54 1007.10 1007.63 1008.15 1008.70 1009.28 1009.88 1010.46 1010.99 1011.44 1011.80 1012.10 1012.36 1012.63 1012.93 1013.28 1013.67 1014.06 1014.43 1014.74 1014.97 1015.14 1015.27
1008.24 1007.39 1006.51 1005.67 1004.90 1004.21 1003.62 1003.12 1002.71 1002.39 1002.20 1002.16 1002.29 1002.60 1003.08 1003.69 1004.36 1005.06 1005.72 1006.33 1006.88 1007.41 1007.94 1008.49 1009.08 1009.70 1010.31 1010.87 1011.36 1011.75 1012.06 1012.31 1012.54 1012.79 1013.09 1013.45 1013.86 1014.27 1014.65 1014.98 1015.24 1015.43 1015.58
1008.81 1008.14 1007.42 1006.70 1006.03 1005.43 1004.90 1004.44 1004.07 1003.79 1003.62 1003.58 1003.68 1003.92 1004.28 1004.73 1005.23 1005.75 1006.26 1006.76 1007.25 1007.76 1008.31 1008.91 1009.55 1010.20 1010.82 1011.36 1011.80 1012.13 1012.36 1012.54 1012.72 1012.94 1013.23 1013.59 1014.00 1014.43 1014.83 1015.18 1015.46 1015.68 1015.85
1009.32 1008.84 1008.30 1007.74 1007.21 1006.71 1006.26 1005.86 1005.53 1005.27 1005.11 1005.05 1005.09 1005.24 1005.48 1005.78 1006.12 1006.49 1006.87 1007.28 1007.73 1008.24 1008.82 1009.46 1010.14 1010.81 1011.42 1011.92 1012.30 1012.56 1012.71 1012.82 1012.94 1013.12 1013.39 1013.75 1014.17 1014.61 1015.03 1015.39 1015.68 1015.92 1016.12
1009.72 1009.43 1009.08 1008.71 1008.33 1007.96 1007.61 1007.29 1007.01 1006.79 1006.63 1006.54 1006.53 1006.59 1006.72 1006.89 1007.10 1007.34 1007.62 1007.97 1008.38 1008.89 1009.48 1010.15 1010.84 1011.50 1012.08 1012.53 1012.83 1013.00 1013.08 1013.12 1013.20 1013.35 1013.61 1013.97 1014.39 1014.84 1015.27 1015.64 1015.94 1016.18 1016.39
1010.02 1009.89 1009.72 1009.52 1009.30 1009.08 1008.85 1008.63 1008.42 1008.24 1008.10 1008.00 1007.96 1007.96 1008.00 1008.07 1008.18 1008.33 1008.54 1008.82 1009.20 1009.69 1010.28 1010.93 1011.60 1012.22 1012.73 1013.10 1013.32 1013.41 1013.42 1013.41 1013.46 1013.61 1013.88 1014.25 1014.69 1015.16 1015.59 1015.95 1016.25 1016.47 1016.67
1010.21 1010.20 1010.18 1010.14 1010.08 1010.00 1009.90 1009.79 1009.66 1009.54 1009.43 1009.35 1009.30 1009.27 1009.27 1009.29 1009.33 1009.41 1009.56 1009.79 1010.13 1010.58 1011.12 1011.72 1012.32 1012.86 1013.28 1013.56 1013.69 1013.71 1013.66 1013.64 1013.69 1013.86 1014.16 1014.57 1015.05 1015.53 1015.96 1016.32 1016.59 1016.78 1016.94
1010.32 1010.39 1010.47 1010.56 1010.63 1010.68 1010.70 1010.69 1010.65 1010.60 1010.55 1010.50 1010.47 1010.45 1010.44 1010.43 1010.45 1010.50 1010.60 1010.78 1011.07 1011.45 1011.91 1012.42 1012.92 1013.35 1013.66 1013.83 1013.88 1013.85 1013.78 1013.76 1013.84 1014.06 1014.42 1014.88 1015.40 1015.91 1016.35 1016.69 1016.93 1017.08 1017.19
1010.41 1010.52 1010.67 1010.83 1011.00 1011.14 1011.25 1011.32 1011.35 1011.37 1011.38 1011.39 1011.39 1011.41 1011.42 1011.42 1011.43 1011.47 1011.54 1011.68 1011.90 1012.21 1012.57 1012.97 1013.34 1013.65 1013.85 1013.93 1013.91 1013.83 1013.77 1013.77 1013.90 1014.18 1014.60 1015.13 1015.69 1016.23 1016.68 1017.01 1017.22 1017.33 1017.39
1010.54 1010.66 1010.83 1011.03 1011.24 1011.43 1011.59 1011.71 1011.79 1011.86 1011.92 1011.98 1012.03 1012.09 1012.14 1012.18 1012.21 1012.25 1012.31 1012.41 1012.57 1012.79 1013.06 1013.34 1013.59 1013.79 1013.88 1013.89 1013.82 1013.72 1013.66 1013.70 1013.87 1014.21 1014.69 1015.27 1015.87 1016.43 1016.89 1017.22 1017.42 1017.50 1017.52
1010.76 1010.87 1011.04 1011.24 1011.45 1011.64 1011.80 1011.92 1012.03 1012.12 1012.21 1012.30 1012.41 1012.52 1012.61 1012.70 1012.76 1012.81 1012.86 1012.94 1013.05 1013.20 1013.38 1013.56 1013.72 1013.83 1013.85 1013.80 1013.70 1013.59 1013.54 1013.60 1013.81 1014.18 1014.69 1015.29 1015.91 1016.48 1016.95 1017.28 1017.48 1017.56 1017.57
1011.09 1011.19 1011.34 1011.51 1011.68 1011.83 1011.96 1012.06 1012.15 1012.23 1012.33 1012.45 1012.59 1012.73 1012.87 1013.00 1013.09 1013.17 1013.23 1013.29 1013.37 1013.47 1013.59 1013.71 1013.81 1013.85 1013.83 1013.75 1013.64 1013.53 1013.49 1013.55 1013.76 1014.12 1014.62 1015.20 1015.80 1016.36 1016.83 1017.17 1017.38 1017.48 1017.52
1011.51 1011.61 1011.73 1011.86 1011.98 1012.08 1012.15 1012.19 1012.24 1012.30 1012.38 1012.50 1012.66 1012.83 1013.00 1013.16 1013.29 1013.38 1013.46 1013.52 1013.59 1013.67 1013.76 1013.84 1013.91 1013.93 1013.90 1013.81 1013.70 1013.59 1013.54 1013.58 1013.75 1014.07 1014.50 1015.02 1015.56 1016.08 1016.53 1016.87 1017.11 1017.25 1017.34
1011.96 1012.06 1012.17 1012.27 1012.34 1012.38 1012.39 1012.38 1012.37 1012.39 1012.45 1012.56 1012.71 1012.89 1013.08 1013.25 1013.40 1013.52 1013.60 1013.67 1013.74 1013.82 1013.91 1013.99 1014.05 1014.08 1014.06 1013.99 1013.89 1013.78 1013.71 1013.71 1013.81 1014.04 1014.37 1014.78 1015.23 1015.68 1016.08 1016.42 1016.68 1016.88 1017.03
1012.33 1012.47 1012.58 1012.66 1012.70 1012.70 1012.67 1012.62 1012.58 1012.57 1012.60 1012.69 1012.82 1012.99 1013.17 1013.34 1013.49 1013.61 1013.70 1013.78 1013.85 1013.94 1014.03 1014.13 1014.22 1014.27 1014.28 1014.24 1014.15 1014.05 1013.95 1013.90 1013.92 1014.04 1014.24 1014.52 1014.85 1015.20 1015.54 1015.86 1016.13 1016.37 1016.59
1012.57 1012.74 1012.88 1012.97 1013.01 1013.00 1012.96 1012.90 1012.84 1012.81 1012.83 1012.89 1013.00 1013.15 1013.30 1013.45 1013.57 1013.68 1013.76 1013.83 1013.91 1014.00 1014.11 1014.22 1014.34 1014.42 1014.47 1014.46 1014.40 1014.31 1014.20 1014.10 1014.04 1014.05 1014.13 1014.27 1014.48 1014.72 1014.98 1015.25 1015.52 1015.78 1016.05
1012.62 1012.84 1013.02 1013.14 1013.21 1013.23 1013.21 1013.17 1013.13 1013.10 1013.11 1013.16 1013.24 1013.34 1013.45 1013.56 1013.64 1013.71 1013.77 1013.83 1013.89 1013.98 1014.09 1014.22 1014.35 1014.47 1014.55 1014.58 1014.55 1014.48 1014.37 1014.25 1014.15 1014.07 1014.05 1014.08 1014.16 1014.29 1014.47 1014.68 1014.91 1015.18 1015.46
1012.50 1012.77 1012.99 1013.16 1013.28 1013.35 1013.39 1013.40 1013.40 1013.40 1013.42 1013.45 1013.50 1013.55 1013.61 1013.66 1013.69 1013.71 1013.73 1013.76 1013.80 1013.87 1013.98 1014.10 1014.24 1014.38 1014.48 1014.54 1014.56 1014.52 1014.44 1014.33 1014.21 1014.10 1014.02 1013.97 1013.96 1014.00 1014.09 1014.22 1014.41 1014.64 1014.90
1012.29 1012.59 1012.85 1013.07 1013.25 1013.39 1013.50 1013.58 1013.64 1013.68 1013.71 1013.74 1013.76 1013.77 1013.77 1013.75 1013.72 1013.69 1013.66 1013.65 1013.66 1013.71 1013.79 1013.90 1014.03 1014.16 1014.28 1014.37 1014.43 1014.44 1014.41 1014.34 1014.26 1014.16 1014.06 1013.98 1013.92 1013.90 1013.91 1013.97 1014.09 1014.26 1014.48
1012.09 1012.40 1012.69 1012.95 1013.18 1013.39 1013.58 1013.73 1013.85 1013.95 1014.00 1014.03 1014.02 1013.99 1013.93 1013.85 1013.77 1013.68 1013.61 1013.56 1013.54 1013.55 1013.61 1013.69 1013.80 1013.92 1014.04 1014.15 1014.24 1014.30 1014.34 1014.34 1014.32 1014.28 1014.22 1014.16 1014.09 1014.03 1013.98 1013.98 1014.02 1014.11 1014.26
1012.01 1012.31 1012.60 1012.88 1013.16 1013.42 1013.67 1013.89 1014.08 1014.22 1014.30 1014.33 1014.31 1014.24 1014.14 1014.02 1013.88 1013.76 1013.65 1013.57 1013.53 1013.52 1013.54 1013.59 1013.66 1013.76 1013.86 1013.98 1014.09 1014.20 1014.31 1014.40 1014.47 1014.51 1014.52 1014.51 1014.46 1014.39 1014.32 1014.26 1014.24 1014.25 1014.32
1012.14 1012.41 1012.68 1012.96 1013.25 1013.54 1013.83 1014.10 1014.34 1014.52 1014.63 1014.68 1014.65 1014.57 1014.44 1014.29 1014.13 1013.98 1013.86 1013.77 1013.71 1013.68 1013.68 1013.70 1013.74 1013.79 1013.87 1013.98 1014.10 1014.24 1014.40 1014.57 1014.73 1014.86 1014.96 1015.01 1015.01 1014.97 1014.89 1014.80 1014.72 1014.67 1014.66
1012.51 1012.74 1012.97 1013.22 1013.49 1013.78 1014.09 1014.39 1014.66 1014.88 1015.02 1015.08 1015.07 1014.98 1014.86 1014.70 1014.54 1014.40 1014.28 1014.19 1014.13 1014.09 1014.07 1014.06 1014.07 1014.09 1014.13 1014.20 1014.32 1014.47 1014.66 1014.88 1015.11 1015.32 1015.50 1015.62 1015.68 1015.67 1015.61 1015.51 1015.39 1015.29 1015.22
1013.10 1013.28 1013.45 1013.65 1013.88 1014.15 1014.45 1014.75 1015.04 1015.28 1015.46 1015.55 1015.56 1015.50 1015.39 1015.25 1015.11 1014.98 1014.88 1014.81 1014.76 1014.72 1014.70 1014.67 1014.64 1014.62 1014.62 1014.65 1014.74 1014.88 1015.07 1015.31 1015.58 1015.84 1016.07 1016.25 1016.36 1016.40 1016.36 1016.27 1016.15 1016.02 1015.91
1013.85 1013.97 1014.08 1014.21 1014.38 1014.60 1014.87 1015.16 1015.45 1015.71 1015.91 1016.04 1016.08 1016.06 1015.98 1015.88 1015.77 1015.68 1015.61 1015.56 1015.53 1015.50 1015.47 1015.43 1015.38 1015.32 1015.28 1015.27 1015.31 1015.41 1015.58 1015.81 1016.08 1016.36 1016.62 1016.83 1016.98 1017.05 1017.04 1016.97 1016.86 1016.72 1016.60
Thickness
5809 5811 5804 5803 5803 5803 5803 5803 5804 5804 5804 5804 5804 5803 5802 5801 5801 5800 5798 5797 5796 5794 5793 5792 5791 5789 5788 5786 5785 5783 5782 5780 5778 5776 5774 5772 5770 5768 5767 5765 5764 5763 5760
5811 5810 5803 5803 5802 5802 5802 5802 5803 5803 5803 5803 5803 5802 5802 5801 5800 5799 5797 5796 5795 5793 5792 5791 5790 5788 5787 5786 5784 5782 5780 5778 5776 5774 5772 5770 5769 5767 5765 5764 5763 5762 5759
5811 5809 5804 5802 5801 5801 5801 5801 5802 5802 5802 5802 5801 5801 5801 5799 5798 5797 5797 5795 5794 5793 5792 5790 5789 5787 5785 5784 5782 5780 5779 5777 5775 5773 5772 5772 5768 5765 5763 5762 5761 5759 5757
5810 5808 5804 5800 5799 5799 5799 5799 5800 5800 5800 5801 5800 5800 5799 5797 5796 5795 5794 5793 5792 5793 5790 5789 5787 5785 5784 5782 5781 5779 5777 5776 5774 5773 5773 5773 5769 5765 5762 5761 5759 5758 5756
5809 5807 5802 5799 5798 5798 5798 5797 5798 5799 5799 5799 5798 5798 5797 5795 5794 5793 5792 5791 5791 5791 5789 5787 5785 5784 5782 5780 5778 5777 5775 5774 5774 5774 5773 5772 5769 5764 5762 5760 5758 5757 5756
5808 5806 5802 5798 5797 5797 5796 5796 5797 5797 5798 5797 5796 5796 5795 5793 5792 5791 5790 5789 5789 5788 5786 5785 5783 5781 5780 5778 5776 5775 5773 5773 5773 5774 5772 5771 5768 5763 5761 5760 5758 5756 5754
5808 5806 5802 5797 5796 5795 5795 5795 5795 5796 5795 5795 5795 5794 5793 5792 5790 5789 5788 5787 5786 5785 5783 5782 5781 5779 5777 5776 5775 5773 5772 5771 5774 5773 5771 5771 5767 5763 5761 5759 5758 5756 5754
5808 5807 5802 5797 5795 5794 5793 5793 5793 5794 5794 5793 5793 5793 5792 5791 5790 5788 5786 5785 5784 5783 5781 5780 5778 5777 5775 5774 5773 5771 5770 5770 5772 5772 5771 5769 5765 5762 5760 5758 5756 5755 5753
5809 5807 5805 5802 5797 5794 5793 5792 5792 5792 5792 5792 5791 5791 5791 5790 5788 5786 5784 5783 5782 5781 5780 5778 5776 5775 5773 5773 5771 5770 5770 5770 5774 5772 5770 5767 5763 5761 5760 5758 5756 5754 5752
5808 5807 5804 5803 5801 5799 5796 5792 5791 5791 5790 5790 5790 5790 5790 5789 5787 5785 5783 5781 5780 5779 5778 5777 5775 5774 5772 5771 5771 5770 5770 5771 5774 5773 5770 5766 5762 5760 5759 5757 5755 5754 5752
5804 5805 5805 5803 5801 5800 5799 5794 5793 5791 5790 5790 5789 5789 5789 5790 5789 5786 5782 5780 5779 5778 5777 5776 5774 5773 5772 5771 5770 5770 5771 5775 5774 5772 5769 5763 5761 5759 5758 5756 5754 5753 5751
5801 5804 5805 5803 5801 5800 5799 5796 5795 5794 5792 5790 5789 5789 5789 5787 5786 5785 5780 5779 5778 5777 5776 5775 5775 5774 5775 5774 5772 5771 5774 5775 5774 5771 5766 5762 5759 5758 5757 5755 5753 5751 5750
5803 5803 5804 5803 5801 5801 5798 5798 5796 5795 5793 5792 5789 5788 5787 5787 5786 5785 5783 5781 5780 5779 5779 5777 5778 5778 5777 5775 5775 5776 5775 5774 5773 5771 5766 5761 5758 5757 5755 5754 5752 5750 5749
5802 5802 5804 5803 5800 5798 5798 5798 5797 5796 5794 5793 5790 5789 5788 5786 5785 5784 5783 5783 5782 5781 5779 5779 5777 5777 5776 5776 5775 5776 5775 5774 5772 5770 5765 5760 5757 5756 5755 5753 5751 5750 5748
5801 5802 5802 5801 5798 5797 5795 5796 5797 5795 5795 5792 5789 5787 5787 5786 5784 5784 5782 5781 5782 5781 5780 5778 5777 5776 5776 5776 5775 5774 5774 5773 5772 5770 5765 5760 5758 5756 5754 5753 5751 5750 5748
5803 5802 5802 5801 5799 5797 5795 5793 5794 5794 5791 5791 5790 5788 5786 5785 5783 5783 5781 5780 5781 5780 5779 5778 5776 5775 5775 5775 5774 5773 5772 5772 5769 5768 5767 5762 5758 5756 5754 5753 5751 5750 5748
5804 5803 5802 5801 5800 5797 5796 5795 5796 5795 5794 5792 5789 5787 5785 5785 5783 5782 5782 5781 5780 5779 5778 5777 5776 5776 5774 5774 5773 5772 5772 5770 5770 5768 5767 5764 5761 5757 5755 5753 5751 5749 5747
5807 5803 5802 5804 5801 5798 5796 5795 5796 5795 5793 5791 5790 5787 5784 5783 5782 5781 5782 5781 5779 5779 5778 5777 5776 5775 5773 5773 5772 5773 5772 5770 5769 5768 5767 5765 5763 5761 5757 5754 5752 5750 5748
5807 5804 5802 5802 5800 5799 5797 5795 5795 5792 5792 5792 5790 5788 5785 5783 5783 5782 5781 5780 5780 5780 5779 5778 5777 5775 5772 5771 5772 5771 5771 5771 5770 5769 5768 5767 5764 5762 5760 5755 5753 5751 5749
5809 5805 5802 5800 5799 5798 5798 5795 5794 5792 5792 5791 5790 5786 5784 5784 5782 5782 5782 5780 5781 5779 5777 5776 5774 5773 5772 5772 5773 5771 5771 5771 5771 5770 5769 5767 5765 5763 5761 5758 5755 5753 5750
5809 5805 5803 5800 5799 5797 5796 5794 5792 5791 5790 5790 5789 5786 5785 5784 5783 5782 5783 5780 5780 5779 5777 5777 5775 5773 5772 5772 5769 5767 5770 5771 5770 5769 5768 5767 5765 5763 5761 5758 5757 5755 5752
5809 5806 5804 5801 5800 5798 5797 5795 5793 5792 5791 5790 5789 5786 5784 5783 5782 5784 5781 5782 5781 5778 5776 5776 5774 5774 5774 5773 5769 5765 5762 5764 5766 5769 5767 5765 5764 5763 5761 5760 5757 5754 5752
5811 5808 5807 5804 5801 5799 5798 5797 5794 5791 5790 5789 5786 5785 5784 5783 5782 5781 5781 5781 5780 5781 5778 5776 5775 5772 5771 5772 5771 5767 5761 5758 5761 5764 5763 5763 5762 5761 5761 5759 5757 5754 5752
5814 5813 5809 5805 5802 5800 5798 5796 5793 5789 5786 5785 5785 5785 5784 5783 5782 5782 5781 5780 5780 5781 5778 5777 5776 5774 5771 5769 5770 5768 5767 5764 5757 5755 5759 5761 5760 5758 5758 5758 5757 5754 5752
5817 5814 5811 5806 5802 5800 5798 5795 5792 5790 5788 5788 5786 5783 5782 5783 5782 5781 5780 5779 5778 5778 5776 5775 5773 5772 5772 5770 5768 5768 5765 5762 5761 5755 5751 5754 5757 5759 5758 5756 5755 5753 5751
5817 5815 5811 5805 5801 5800 5797 5795 5791 5788 5787 5785 5783 5782 5782 5783 5782 5781 5779 5777 5777 5776 5774 5773 5771 5770 5768 5767 5767 5767 5764 5761 5759 5757 5752 5751 5752 5755 5756 5754 5753 5751 5749